Simultaneous Nadir Overpasses (SNOs) Predictions

Prediction of SNOs between GOES-14 and NOAA-20 Satellite Orbit:

Table of predicted SNOs for the next 14.0 days since TLE Epoch: 12/1/2024
Index Date Time (GOES-14) GOES-14 Lat,Lon NOAA-20 Lat,Lon Distance(km) Time Diff (sec)
1 12/01/2024 08:28:37 0.01,-108.56 -0.39,-106.67 214.36 80
2 12/02/2024 20:53:10 -0.04,-108.48 -0.84,-111.96 396.38 80
3 12/03/2024 20:31:44 -0.03,-108.48 0.23,-107.43 119.67 80
4 12/05/2024 08:56:09 0.05,-108.53 0.96,-112.69 473.42 80
5 12/06/2024 08:34:42 0.04,-108.52 -0.06,-108.15 42.38 80
6 12/08/2024 20:40:29 -0.05,-108.43 -0.13,-108.90 52.56 80
7 12/09/2024 20:19:03 -0.03,-108.43 0.90,-104.36 463.66 80
8 12/11/2024 08:43:26 0.06,-108.48 0.33,-109.61 128.99 80
9 12/12/2024 08:21:59 0.05,-108.47 -0.70,-105.07 386.89 80
10 12/13/2024 20:46:32 -0.09,-108.39 -0.54,-110.35 224.28 80
11 12/14/2024 20:25:05 -0.07,-108.38 0.50,-105.82 291.59 80
